{"data":{"norad_id":66783,"epoch":"2026-09-19T11:02:48.060672Z","epoch_age_seconds":108166,"freshness":"FRESH","line1":"1 66783U 25276DX  26262.46027848  .00003560  00000+0  29102-3 0  9999","line2":"2 66783  97.5138 329.8868 0016977 166.6305 193.5372 14.99876175 44326","mean_motion":14.99876175,"eccentricity":0.0016977,"inclination_deg":97.5138,"raan_deg":329.8868,"arg_perigee_deg":166.6305,"mean_anomaly_deg":193.5372,"bstar":0.00029102,"rev_number":4432,"period_min":96.007925454246,"perigee_km":555.48734825264,"apogee_km":579.06981231394,"semimajor_km":6945.4155802833,"source":"CELESTRAK","updated_at":"2026-09-20T09:00:34.880210Z"}}